Temp
38 31 26 30 33 34 33 32 31 34 35 34 33 32 41 44 42 41 42 42 42 44 48 50 49 49 48 47 47 47 46 46 44 44 44 43 45 44 44 44 44 44 43 43
32 27 34 36 36 35 34 29 28 34 34 34 30 32 40 38 39 39 41 41 41 42 43 46 48 46 47 47 47 46 47 46 45 44 44 44 43 43 43 43 43 43 43 42
30 32 38 36 32 33 29 27 27 28 32 29 26 31 36 38 39 40 41 40 39 39 40 43 44 44 44 45 45 46 46 46 45 44 43 41 41 41 41 41 41 41 41 41
31 35 35 33 31 31 27 31 31 29 23 20 25 21 32 34 36 38 39 38 38 38 40 41 42 42 43 43 44 45 45 45 45 43 42 42 42 41 42 41 40 40 40 40
28 30 31 28 31 33 29 31 29 25 14 16 20 15 29 32 36 38 38 38 39 39 39 40 41 42 43 42 42 43 43 43 43 42 42 41 40 40 40 39 38 38 39 39
30 33 31 31 33 32 32 26 24 19 12 10 9 14 25 32 33 35 37 37 38 38 39 40 41 41 42 41 41 40 41 42 42 41 40 40 39 39 38 38 38 38 37 38
27 28 30 32 30 31 27 16 9 11 9 13 1 12 24 32 33 34 35 35 36 37 37 37 39 40 40 40 39 39 40 40 40 39 39 38 38 38 38 38 37 37 37 37
12 16 22 31 28 24 23 16 12 5 8 12 3 11 30 32 33 33 33 34 35 35 35 36 36 37 37 37 38 38 38 38 39 38 38 37 37 37 37 37 36 36 35 35
14 18 28 30 30 27 22 13 22 4 -6 4 10 19 31 33 27 30 32 34 31 32 33 35 36 36 36 36 37 37 37 37 37 37 36 36 35 35 35 35 35 35 35 35
23 14 20 27 28 27 22 25 15 10 5 2 7 1 20 21 23 23 28 26 29 32 34 35 36 36 37 36 36 36 35 35 36 36 35 35 35 34 34 35 34 34 34 34
21 15 17 25 14 14 15 12 13 14 14 7 3 15 18 19 17 19 18 24 21 25 31 31 34 35 34 34 34 35 35 35 35 35 35 34 34 34 34 34 34 34 34 34
28 22 9 14 22 24 23 16 19 14 7 6 10 12 21 19 12 10 23 24 27 27 26 27 29 31 33 36 34 35 37 34 35 35 34 34 34 33 33 33 33 33 33 34
29 14 3 15 19 22 17 22 20 14 17 7 8 14 16 10 14 13 15 23 25 29 30 30 29 30 31 32 34 35 35 36 37 33 33 33 33 32 32 32 33 33 32 33
35 23 13 12 14 12 13 18 21 17 5 12 16 14 19 25 20 21 23 23 21 23 24 25 28 30 31 31 31 32 34 35 35 33 32 32 32 33 32 32 32 32 32 32
27 11 17 16 12 11 16 15 15 13 15 15 22 20 12 13 13 15 18 19 20 22 22 24 24 29 31 31 33 35 35 31 33 30 30 31 32 32 32 31 31 31 31 31
27 9 15 10 21 22 19 22 19 21 22 18 23 21 12 13 8 17 18 18 19 22 23 24 25 27 31 32 32 34 35 36 28 28 30 31 29 29 29 29 29 29 30 30
22 11 6 3 11 9 9 15 21 16 11 19 11 16 7 11 14 11 19 23 23 25 21 23 24 29 30 31 33 32 33 33 22 26 28 28 27 27 25 26 27 26 28 29
21 16 6 6 2 -3 17 20 19 18 20 11 12 10 13 15 15 17 20 20 21 22 22 28 31 31 33 34 33 32 31 28 22 22 23 23 23 24 22 24 25 23 27 27
28 22 10 2 -7 10 20 20 20 19 16 22 19 17 20 21 23 23 26 21 23 23 28 30 31 31 32 31 32 28 25 21 16 19 20 20 21 22 22 23 24 24 27 29
22 23 20 0 -2 -2 17 19 22 23 12 22 24 24 23 24 17 23 29 32 32 33 33 33 34 34 34 35 31 26 27 22 21 19 19 17 18 20 21 24 23 26 29 30
16 18 16 13 8 9 21 24 23 9 15 25 25 25 24 21 24 29 31 31 32 33 33 34 34 33 33 34 30 28 29 26 27 24 22 19 18 21 22 22 23 27 29 28
8 7 3 6 8 6 23 22 17 23 25 26 25 25 25 27 28 29 30 31 31 31 32 33 31 31 33 33 32 30 30 31 27 25 24 21 20 22 23 23 26 26 24 26
8 14 10 14 14 22 24 25 28 28 25 25 25 28 27 26 26 28 28 29 30 30 30 31 29 29 31 31 31 29 31 29 28 25 23 22 20 21 23 23 22 22 24 27
15 18 14 15 18 22 25 26 28 27 28 29 29 28 28 26 27 27 27 28 28 29 28 28 28 27 27 29 30 30 31 30 28 27 25 22 20 19 20 24 24 24 26 25
17 15 9 14 20 20 22 24 27 28 27 25 27 26 27 27 26 27 27 27 28 28 28 27 26 25 25 27 29 31 32 30 29 28 25 22 22 21 21 23 23 24 26 25
20 20 16 17 26 24 26 25 26 23 22 25 24 24 26 26 26 27 26 27 27 26 26 24 24 24 23 25 27 29 31 30 30 27 25 23 23 21 22 22 21 29 29 29
MSLP
1022.57 1023.48 1024.59 1025.01 1024.73 1024.60 1024.57 1024.70 1024.92 1024.93 1025.35 1025.13 1024.47 1023.39 1021.17 1020.81 1020.76 1020.70 1020.85 1020.97 1020.94 1020.83 1020.33 1020.26 1020.47 1020.92 1021.59 1022.28 1022.81 1023.27 1023.92 1024.49 1025.06 1025.65 1026.05 1026.32 1026.33 1026.40 1026.48 1026.66 1026.70 1026.88 1026.96 1026.99
1023.82 1025.00 1025.40 1025.17 1025.11 1025.17 1025.39 1025.74 1026.08 1025.95 1026.16 1026.09 1025.52 1023.68 1021.31 1020.98 1020.80 1020.86 1021.06 1021.28 1021.37 1021.16 1020.80 1020.50 1020.52 1020.99 1021.42 1021.94 1022.61 1023.23 1023.72 1024.21 1024.69 1025.06 1025.47 1025.75 1026.00 1026.20 1026.30 1026.49 1026.61 1026.78 1026.84 1026.91
1025.00 1026.01 1025.59 1025.56 1026.01 1026.13 1026.79 1027.08 1027.41 1027.82 1027.49 1027.66 1026.84 1024.53 1022.29 1021.31 1021.16 1021.12 1021.35 1021.63 1021.73 1021.61 1021.25 1021.03 1021.09 1021.34 1021.73 1022.11 1022.46 1022.91 1023.42 1023.95 1024.42 1024.79 1025.34 1025.84 1026.13 1026.33 1026.45 1026.49 1026.56 1026.65 1026.70 1026.77
1026.43 1026.39 1026.24 1026.36 1027.02 1027.36 1027.89 1028.22 1028.63 1029.07 1029.53 1029.91 1029.19 1027.13 1023.69 1022.53 1021.81 1021.59 1021.77 1022.00 1022.07 1021.93 1021.66 1021.58 1021.60 1021.78 1022.09 1022.37 1022.61 1022.92 1023.31 1023.71 1024.11 1024.55 1025.05 1025.42 1025.70 1025.99 1026.04 1026.16 1026.30 1026.38 1026.49 1026.58
1027.61 1027.28 1027.17 1027.47 1028.05 1028.14 1028.89 1029.14 1029.90 1030.79 1031.55 1031.82 1031.17 1029.86 1024.76 1023.34 1022.71 1022.49 1022.41 1022.48 1022.58 1022.54 1022.43 1022.31 1022.31 1022.39 1022.51 1022.66 1022.83 1022.99 1023.33 1023.75 1024.12 1024.46 1024.78 1025.14 1025.37 1025.58 1025.75 1025.97 1026.10 1026.21 1026.32 1026.40
1027.85 1027.84 1028.07 1028.28 1028.58 1028.82 1029.41 1030.24 1031.28 1032.29 1033.09 1033.85 1033.40 1031.79 1026.80 1024.69 1024.15 1023.51 1023.06 1023.17 1023.27 1023.19 1023.12 1023.01 1022.99 1022.97 1023.05 1023.15 1023.29 1023.48 1023.71 1023.94 1024.18 1024.47 1024.73 1024.97 1025.15 1025.35 1025.67 1025.82 1025.96 1026.06 1026.13 1026.17
1028.85 1029.00 1028.93 1028.88 1029.11 1029.48 1030.17 1031.54 1033.06 1034.14 1034.89 1035.65 1035.11 1032.81 1027.29 1025.24 1024.71 1024.44 1024.43 1024.39 1024.25 1024.07 1024.11 1024.12 1023.95 1023.85 1023.86 1023.93 1024.03 1024.04 1024.11 1024.17 1024.29 1024.44 1024.59 1024.76 1024.96 1025.17 1025.31 1025.48 1025.66 1025.86 1025.93 1025.92
1030.30 1030.41 1030.31 1029.92 1030.02 1030.51 1031.41 1032.42 1034.02 1035.83 1037.44 1036.51 1035.68 1032.36 1027.10 1025.89 1025.56 1025.21 1025.41 1025.45 1025.14 1024.95 1024.91 1024.92 1024.81 1024.71 1024.67 1024.55 1024.54 1024.62 1024.54 1024.39 1024.38 1024.39 1024.38 1024.50 1024.64 1024.89 1025.07 1025.24 1025.44 1025.58 1025.62 1025.64
1030.27 1030.97 1030.97 1030.89 1030.92 1031.51 1032.16 1033.08 1033.93 1035.91 1038.29 1037.44 1034.68 1031.43 1027.73 1026.62 1026.54 1026.25 1026.12 1025.92 1026.13 1025.99 1025.61 1025.29 1024.78 1024.52 1024.48 1024.47 1024.49 1024.53 1024.46 1024.20 1024.08 1024.07 1024.18 1024.22 1024.40 1024.58 1024.75 1024.83 1024.97 1025.09 1025.26 1025.29
1030.17 1031.22 1031.75 1031.60 1031.72 1032.07 1032.47 1033.32 1034.35 1035.45 1037.28 1037.05 1034.91 1032.79 1029.34 1028.10 1027.81 1027.84 1027.66 1027.71 1027.27 1026.68 1025.91 1025.45 1025.05 1024.69 1024.36 1024.26 1024.00 1023.90 1023.97 1023.97 1023.84 1023.83 1023.93 1023.95 1024.01 1024.16 1024.42 1024.59 1024.52 1024.63 1024.81 1024.98
1030.01 1031.17 1032.49 1032.29 1032.24 1032.27 1033.14 1033.73 1034.68 1035.19 1035.74 1035.99 1035.35 1031.54 1028.47 1028.67 1028.84 1029.01 1028.89 1028.57 1028.00 1027.45 1026.68 1026.26 1025.52 1025.06 1024.68 1024.23 1023.94 1023.65 1023.45 1023.12 1022.97 1023.12 1023.28 1023.46 1023.51 1023.71 1023.99 1024.19 1024.08 1024.12 1024.33 1024.59
1029.84 1031.14 1032.85 1032.68 1032.30 1032.10 1032.37 1033.05 1033.64 1034.88 1035.57 1035.55 1034.64 1030.71 1028.43 1028.62 1029.05 1029.51 1029.34 1028.81 1027.97 1027.51 1027.06 1026.59 1025.98 1025.40 1024.82 1024.28 1023.84 1023.57 1023.15 1022.86 1022.54 1022.36 1022.25 1022.24 1022.58 1023.01 1023.29 1023.72 1023.67 1023.66 1023.81 1024.05
1029.46 1031.46 1032.64 1033.08 1033.16 1032.67 1032.64 1032.65 1033.05 1033.77 1033.98 1034.15 1033.71 1029.99 1028.45 1029.03 1029.54 1030.19 1030.07 1028.72 1028.33 1027.70 1027.06 1026.53 1026.01 1025.48 1024.87 1024.32 1023.73 1023.25 1022.85 1022.40 1021.91 1021.90 1022.15 1022.03 1021.75 1022.05 1022.22 1022.79 1023.11 1023.20 1023.39 1023.59
1029.11 1030.94 1032.45 1032.75 1032.49 1032.35 1032.95 1032.47 1032.50 1032.81 1033.54 1032.64 1029.81 1029.12 1029.76 1029.39 1030.01 1029.73 1029.43 1029.13 1028.70 1027.99 1027.29 1026.60 1025.76 1025.06 1024.49 1023.93 1023.35 1022.75 1022.15 1021.77 1021.44 1021.34 1021.28 1021.23 1021.21 1021.13 1021.54 1022.05 1022.44 1022.62 1022.71 1022.96
1029.98 1031.60 1032.57 1032.62 1032.69 1032.64 1032.21 1031.88 1032.05 1031.94 1031.29 1031.55 1027.43 1028.93 1030.43 1030.78 1031.13 1030.55 1029.92 1029.02 1028.47 1027.78 1026.96 1026.25 1025.73 1024.92 1024.15 1023.43 1022.69 1022.17 1021.62 1021.01 1020.88 1020.88 1020.60 1020.02 1019.87 1020.14 1020.59 1021.19 1021.73 1022.00 1022.12 1022.31
1030.67 1032.02 1033.43 1033.35 1032.60 1032.23 1031.50 1031.04 1030.77 1030.30 1030.26 1029.81 1029.93 1028.28 1029.89 1030.46 1030.63 1030.31 1029.55 1028.76 1028.05 1027.23 1026.50 1025.91 1025.25 1024.46 1023.76 1023.16 1022.51 1021.90 1021.27 1020.55 1020.22 1020.15 1019.78 1019.39 1019.37 1019.53 1019.81 1020.36 1020.93 1021.37 1021.51 1021.70
1031.38 1032.52 1034.17 1034.25 1033.60 1032.73 1031.08 1028.69 1028.47 1028.60 1028.74 1029.11 1029.89 1029.78 1030.29 1030.59 1030.27 1029.93 1029.04 1028.07 1027.37 1026.62 1026.08 1025.62 1024.96 1023.97 1023.05 1022.42 1021.90 1021.33 1020.56 1019.85 1019.95 1019.49 1018.90 1018.69 1018.81 1018.82 1019.04 1019.74 1020.32 1020.57 1020.69 1020.91
1031.65 1032.72 1033.93 1034.78 1034.44 1032.73 1028.68 1027.63 1027.28 1027.60 1027.86 1028.21 1029.04 1029.56 1029.65 1029.50 1028.97 1028.54 1027.65 1027.44 1026.85 1026.08 1025.35 1024.64 1023.87 1023.10 1022.19 1021.48 1021.04 1020.61 1020.05 1019.57 1019.37 1018.64 1018.08 1018.06 1018.19 1018.36 1018.78 1019.34 1019.69 1020.00 1020.02 1020.25
1031.14 1032.22 1033.69 1034.70 1034.59 1030.79 1028.00 1026.89 1026.89 1026.93 1027.38 1027.87 1028.41 1028.75 1028.60 1028.08 1027.47 1027.00 1026.24 1025.86 1025.44 1025.08 1024.19 1023.42 1022.71 1022.04 1021.23 1020.62 1020.09 1019.78 1019.36 1019.00 1019.01 1018.37 1017.98 1018.04 1017.85 1018.01 1018.12 1018.66 1019.00 1019.26 1019.45 1019.66
1031.81 1032.06 1032.83 1034.60 1034.30 1031.38 1027.55 1026.57 1026.36 1026.74 1026.93 1027.14 1027.35 1027.57 1027.57 1027.13 1026.29 1025.56 1025.10 1024.75 1023.97 1023.32 1022.69 1022.03 1021.30 1020.77 1020.23 1019.41 1019.39 1019.05 1018.52 1018.26 1018.09 1017.50 1016.95 1017.28 1017.67 1017.95 1017.90 1017.77 1018.22 1018.46 1018.75 1019.06
1032.48 1032.31 1032.25 1032.92 1032.51 1029.10 1026.55 1026.21 1026.46 1027.01 1026.89 1026.41 1026.54 1026.64 1026.67 1026.64 1025.98 1024.45 1024.17 1023.63 1023.18 1022.34 1021.59 1020.90 1020.24 1019.80 1019.08 1018.57 1018.52 1018.04 1017.58 1017.16 1016.66 1016.38 1016.09 1016.28 1016.59 1016.86 1017.14 1017.37 1017.64 1017.91 1018.25 1018.64
1032.01 1032.15 1032.37 1032.46 1031.34 1028.35 1025.88 1026.09 1026.17 1025.66 1025.48 1025.65 1025.73 1025.60 1025.60 1025.34 1024.53 1023.81 1023.14 1022.47 1021.77 1021.22 1020.29 1019.76 1019.68 1018.77 1017.59 1017.85 1017.78 1016.96 1016.41 1015.89 1015.49 1015.61 1015.15 1015.60 1015.79 1016.11 1016.60 1016.80 1016.96 1017.41 1017.92 1018.18
1031.56 1030.10 1030.01 1029.52 1027.28 1025.90 1025.45 1025.28 1024.97 1025.21 1025.29 1025.20 1024.96 1024.63 1024.52 1024.20 1023.60 1023.01 1022.25 1021.54 1020.74 1020.23 1019.65 1019.21 1018.94 1017.84 1016.63 1016.74 1016.73 1015.84 1014.89 1014.96 1014.59 1014.69 1014.44 1014.74 1015.20 1015.36 1015.82 1016.14 1016.30 1016.91 1017.22 1017.45
1030.06 1029.14 1029.05 1028.11 1026.07 1025.54 1024.70 1024.77 1024.63 1024.58 1024.29 1024.15 1024.24 1024.08 1023.91 1023.51 1022.80 1022.13 1021.33 1020.35 1019.78 1019.18 1018.76 1018.75 1018.33 1017.23 1015.99 1015.59 1015.27 1014.62 1014.06 1013.87 1013.77 1013.80 1013.56 1013.97 1014.40 1014.73 1015.14 1015.38 1015.61 1015.85 1016.25 1016.61
1028.71 1028.33 1027.63 1026.31 1025.46 1024.92 1024.62 1024.46 1024.27 1024.03 1024.05 1024.02 1023.72 1023.60 1023.28 1022.91 1022.10 1021.49 1020.53 1019.44 1018.87 1018.38 1017.82 1017.74 1017.29 1016.48 1015.29 1015.09 1014.07 1013.43 1012.90 1012.89 1012.73 1012.77 1012.62 1012.99 1013.28 1013.63 1014.18 1014.62 1014.62 1014.52 1014.77 1015.26
1027.25 1026.06 1026.34 1024.34 1024.24 1024.14 1023.82 1023.72 1023.60 1023.52 1023.48 1023.29 1023.24 1022.92 1022.34 1022.09 1021.41 1020.61 1019.72 1018.82 1018.39 1017.72 1017.35 1016.90 1016.25 1015.80 1014.83 1014.36 1013.08 1012.33 1011.86 1011.65 1011.58 1011.62 1011.85 1011.95 1012.32 1012.72 1013.26 1013.86 1014.21 1013.99 1014.22 1014.64
Wind_Speed
5 9 3 2 2 1 2 2 1 1 3 5 2 9 20 8 7 8 8 7 7 8 7 6 7 8 7 6 7 8 9 8 6 2 2 1 2 1 1 1 1 1 1 2
8 4 2 1 4 4 5 2 3 4 3 2 6 18 12 5 4 3 3 6 7 7 7 6 4 6 9 8 6 7 8 9 5 2 2 2 2 1 0 0 1 0 1 2
7 0 3 3 6 5 4 3 2 3 6 3 8 9 6 4 4 3 4 3 4 6 7 5 0 3 5 7 8 8 7 7 5 5 3 2 2 1 1 1 1 1 1 2
6 4 3 4 5 2 2 2 2 3 5 2 6 6 8 6 9 5 6 5 7 7 6 4 1 2 3 4 6 6 7 7 5 6 3 5 3 3 2 1 1 2 2 3
4 4 6 7 2 2 2 3 3 3 4 4 7 5 10 5 6 6 8 8 7 6 6 6 2 1 1 4 5 5 5 4 4 5 5 4 4 3 2 2 3 3 3 3
3 1 4 2 2 3 3 3 5 4 4 5 4 3 8 2 4 7 6 8 8 7 7 6 4 2 1 1 2 3 4 4 4 4 5 6 6 5 4 3 3 2 2 3
5 3 3 3 1 1 5 7 5 8 7 5 3 2 11 5 6 5 8 10 11 7 7 7 7 6 5 4 3 2 3 4 4 4 5 6 6 6 6 5 3 3 3 2
5 7 4 6 3 4 4 6 7 5 2 6 3 5 7 2 7 7 3 7 8 10 7 7 7 7 7 7 6 5 5 5 4 5 6 5 6 4 4 4 4 3 3 4
5 3 2 4 2 3 3 4 4 9 2 4 3 9 10 3 1 7 10 11 11 9 8 8 7 6 6 6 7 7 7 7 7 6 5 5 5 6 6 6 5 3 3 4
4 4 2 2 1 5 4 3 5 4 2 4 5 7 7 4 7 6 9 8 9 7 8 8 8 8 6 7 7 6 6 8 8 6 5 5 6 6 5 5 6 5 4 4
5 5 6 1 3 7 3 3 5 4 4 6 2 9 9 8 7 1 5 5 6 7 9 10 11 9 8 7 7 9 8 7 8 7 7 7 6 6 6 7 6 5 4 5
1 5 2 7 1 1 4 6 4 6 6 1 2 11 4 7 5 4 7 7 6 6 7 7 8 10 11 11 9 10 11 8 10 9 9 10 8 8 8 8 8 6 6 6
5 2 4 9 6 5 3 5 4 3 2 7 5 9 2 3 2 3 6 8 8 11 12 8 5 7 8 9 11 11 10 11 11 7 9 8 10 10 11 10 8 7 7 7
4 3 8 9 9 5 3 4 5 6 4 5 15 9 7 12 14 13 12 8 6 8 8 7 8 9 7 7 7 9 12 10 12 9 9 11 12 13 11 9 9 9 8 7
4 4 2 6 5 3 7 7 7 10 8 9 16 15 4 5 3 5 6 8 8 8 8 7 7 10 12 11 12 12 10 10 9 10 11 15 13 11 11 10 9 9 8 7
1 3 1 5 7 8 15 11 15 19 17 15 19 31 3 4 4 7 9 8 9 10 10 10 9 10 14 13 12 13 14 14 6 10 14 13 11 11 11 10 10 9 8 7
4 4 3 8 4 6 10 14 18 6 4 9 9 7 2 5 7 6 9 13 12 13 8 11 11 14 14 14 13 13 15 13 7 12 14 12 11 12 11 10 10 9 9 7
5 5 3 5 5 2 9 3 5 9 6 6 2 3 6 8 7 9 11 10 12 10 10 14 15 14 16 15 14 12 12 11 11 13 12 10 10 11 9 10 10 7 7 7
4 4 2 3 4 10 7 5 6 6 3 6 4 4 6 6 7 6 7 5 8 10 14 15 13 14 16 15 16 11 11 8 9 11 9 8 9 10 11 12 11 7 7 6
1 3 5 2 3 8 6 4 1 3 5 6 4 6 7 9 11 9 10 16 20 20 17 17 17 17 16 17 13 9 13 8 10 9 8 6 6 8 11 11 10 6 6 9
4 4 16 9 7 11 7 5 5 5 3 4 3 6 7 6 9 16 17 17 17 18 20 20 19 17 18 16 9 14 13 13 10 8 6 7 10 12 10 8 6 9 9 7
8 8 5 3 5 12 6 3 7 2 2 5 5 6 10 12 15 17 19 20 20 21 22 20 16 19 20 13 12 17 17 13 6 7 6 7 8 8 7 10 9 9 8 8
4 8 7 11 9 1 4 3 2 4 7 6 6 9 12 14 16 18 19 21 20 21 18 16 15 21 21 15 13 19 17 8 6 5 7 7 7 8 8 10 9 7 9 8
4 6 5 2 4 7 6 4 5 5 9 13 12 13 14 17 17 18 20 20 19 19 19 14 18 21 22 19 16 17 15 8 7 9 8 6 8 8 7 7 8 8 9 9
6 5 5 10 9 10 8 9 8 7 8 9 11 12 16 17 20 18 20 22 19 19 19 16 17 18 22 20 21 17 13 11 10 10 6 7 6 8 8 9 9 9 9 10
9 8 7 12 10 9 11 6 8 8 8 12 12 13 15 14 18 19 20 20 18 19 18 18 20 19 20 22 21 16 13 9 12 9 6 5 6 6 7 7 6 15 12 18
Wind_Direction
11 66 74 6 13 59 104 84 341 19 357 335 336 286 283 298 253 279 282 286 282 276 273 236 208 190 172 169 168 169 165 167 151 144 153 185 215 179 184 190 165 36 19 29
29 76 321 91 30 81 55 86 334 296 22 347 353 291 290 297 263 230 297 313 313 307 303 289 213 166 176 169 170 159 173 167 169 146 151 151 156 159 153 170 267 195 46 13
104 166 340 109 34 54 44 106 16 252 330 75 318 301 323 317 346 334 313 344 333 315 319 326 88 163 144 163 170 170 168 161 169 165 129 105 83 83 233 204 220 181 342 331
77 337 60 70 72 34 74 346 29 14 41 287 11 278 304 344 331 14 355 347 344 348 346 354 46 110 151 165 155 156 165 171 179 164 169 187 192 204 207 191 205 280 291 299
256 19 40 62 15 14 133 44 61 71 85 58 351 74 272 356 11 4 1 350 343 348 355 354 2 120 158 149 167 167 160 167 174 181 200 200 213 217 193 219 251 269 280 281
110 66 58 109 90 65 108 79 41 58 85 41 269 91 292 354 333 320 319 338 340 340 350 1 5 29 291 204 170 158 172 211 212 210 214 217 221 216 216 231 250 263 275 290
354 7 354 34 114 54 66 54 348 2 11 213 328 18 242 289 304 274 324 343 342 345 354 346 337 324 304 301 294 260 216 244 223 220 220 219 224 217 224 232 245 260 277 274
127 334 4 346 74 168 54 132 146 204 265 272 354 240 245 140 327 335 30 332 360 9 3 351 339 325 315 308 301 303 287 283 264 248 241 224 215 212 218 222 223 238 255 280
122 299 318 29 27 69 246 55 162 102 64 37 267 291 315 117 83 31 35 36 22 5 359 338 316 294 286 287 277 268 279 271 262 250 240 220 215 209 216 217 217 233 253 271
196 57 260 267 74 32 130 143 52 5 91 294 290 271 241 312 343 -0 28 9 357 352 341 335 328 313 300 286 274 259 251 268 274 265 240 229 217 214 223 220 220 226 246 259
128 95 283 98 188 180 19 10 45 114 125 172 246 263 213 208 209 189 297 289 285 301 320 324 322 318 310 293 278 272 262 248 246 230 228 225 217 214 214 225 223 223 233 245
99 130 185 217 282 214 156 190 154 128 258 221 151 269 197 219 197 176 357 330 334 331 302 304 308 313 320 323 314 291 281 255 254 235 217 211 205 203 207 224 222 212 222 236
182 328 17 342 357 350 216 204 145 120 84 204 153 252 334 322 41 303 253 352 350 340 337 337 326 321 314 313 316 312 293 276 265 225 233 227 211 203 206 212 214 209 213 229
132 149 169 193 207 142 186 203 199 142 138 197 228 267 324 329 357 355 357 339 324 312 308 304 321 320 312 297 287 293 295 287 272 245 224 225 216 209 204 202 203 206 206 217
109 195 232 257 204 195 210 195 198 202 197 205 265 254 214 253 271 271 270 302 315 305 295 297 297 311 314 314 316 315 302 279 270 250 238 230 220 202 190 193 198 202 204 211
65 259 89 277 285 253 267 240 220 232 239 256 269 276 207 231 293 327 309 297 286 286 284 298 294 302 313 306 301 302 304 304 245 249 249 241 211 193 194 190 191 195 201 203
155 131 69 270 344 334 299 234 220 194 197 206 220 251 296 317 300 279 292 293 291 293 286 296 294 301 296 293 291 293 300 302 273 262 261 236 213 202 190 185 188 196 196 194
149 123 115 257 19 300 244 201 182 195 226 212 359 277 257 255 249 256 258 263 276 279 279 290 297 291 291 289 283 284 295 302 288 274 254 219 202 199 181 186 197 195 191 199
214 163 276 194 195 299 279 179 175 180 253 139 179 260 269 271 269 242 238 226 249 259 275 283 281 280 287 284 282 280 294 290 288 280 259 233 208 201 181 194 198 191 190 197
136 246 187 89 184 239 234 226 107 94 255 190 11 318 317 336 319 318 312 308 301 295 291 291 290 290 283 284 274 273 286 283 285 266 240 204 197 208 205 195 192 185 190 216
168 190 221 218 242 279 238 212 133 113 239 259 271 291 301 293 270 289 297 291 288 288 289 292 291 286 284 285 264 266 277 274 272 255 222 206 200 206 207 184 173 184 200 204
172 154 193 138 220 274 170 85 171 172 268 270 244 244 269 278 288 292 295 294 294 294 298 295 289 290 289 278 280 277 272 277 253 244 223 221 208 206 200 191 187 191 192 203
270 190 190 189 211 210 201 215 210 195 242 230 251 294 281 286 285 292 292 290 291 294 292 293 296 295 289 286 276 276 267 255 253 260 258 227 201 197 196 191 182 180 193 205
248 192 224 41 250 229 243 236 252 234 311 312 290 285 287 284 284 288 293 289 289 292 294 296 295 291 288 294 283 266 262 248 230 253 246 219 202 193 190 198 192 185 194 202
195 143 208 260 278 291 270 255 245 269 271 272 274 269 277 282 282 282 289 289 290 293 298 296 290 285 283 293 284 273 266 236 244 257 238 221 204 193 192 208 201 195 202 190
204 226 218 255 255 255 280 232 244 253 252 268 271 277 277 274 273 284 284 283 285 290 293 290 287 283 289 291 281 271 265 225 237 237 235 210 204 190 196 200 209 218 209 208